Weather History for KIJD - August, 2013

Change the Weather History Date:

Monday, August 12, 2013

  Actual Average Record
Temperature  
Mean Temperature 68 °F -  
Max Temperature 81 °F 80 °F 92 °F (1988)
Min Temperature 57 °F 58 °F 42 °F (1968)
Cooling Degree Days 4    
Growing Degree Days 18 (Base 50)    
Moisture  
Dew Point 58 °F    
Average Humidity 75    
Maximum Humidity 100    
Minimum Humidity 43    
Precipitation  
Precipitation 0.00 in - - ()
Sea Level Pressure  
Sea Level Pressure 30.00 in    
Wind  
Wind Speed 1 mph (SW)    
Max Wind Speed 8 mph    
Max Gust Speed -    
Visibility 10 miles    
Events      
Averages and records for this station are not official NWS values.
T = Trace of Precipitation, MM = Missing Value Source: NWS Daily Summary

Daily Weather History Graph

Daily Weather History Graph

Search for Another Location

Airport or City:

Trip Planner

Search our weather history database for the weather conditions in past years. The results will help you decide how hot, cold, wet, or windy it might be!

Date:

Astronomy

Aug. 12, 2013 Rise Set
Actual Time 5:54 AM EDT 7:52 PM EDT
Civil Twilight 5:23 AM EDT 8:22 PM EDT
Nautical Twilight 4:47 AM EDT 8:59 PM EDT
Astronomical Twilight 4:06 AM EDT 9:39 PM EDT
Moon 11:48 AM EDT (8/12) 10:37 PM EDT (8/12)
Length of Visible Light 14h 58m
Length of Day
13h 58m
Waxing Crescent, 31% of the Moon is Illuminated
Aug 12
Waxing Crescent
Aug 14
First Quarter
Aug 20
Full
Aug 28
Last Quarter
Sep 5
New

Hourly Weather History & Observations

Time (EDT) Temp. Heat Index Dew Point Humidity Pressure Visibility Wind Dir Wind Speed Gust Speed Precip Events Conditions
12:52 AM 60.1 °F - 57.9 °F 93% 30.05 in 10.0 mi Calm Calm - N/A   Clear
1:52 AM 59.0 °F - 57.0 °F 93% 30.05 in 10.0 mi Calm Calm - N/A   Clear
2:52 AM 59.0 °F - 57.0 °F 93% 30.04 in 10.0 mi Calm Calm - N/A   Clear
3:52 AM 59.0 °F - 57.0 °F 93% 30.04 in 10.0 mi Calm Calm - N/A   Overcast
4:52 AM 59.0 °F - 57.0 °F 93% 30.03 in 10.0 mi Calm Calm - N/A   Partly Cloudy
5:52 AM 57.9 °F - 57.0 °F 97% 30.03 in 10.0 mi Calm Calm - N/A   Mostly Cloudy
6:00 AM 57.2 °F - 57.2 °F 100% 30.03 in 10.0 mi Calm Calm - N/A   Mostly Cloudy
6:14 AM 59.0 °F - 57.2 °F 94% 30.04 in 10.0 mi Calm Calm - N/A   Overcast
6:25 AM 59.0 °F - 57.2 °F 94% 30.04 in 10.0 mi Calm Calm - N/A   Overcast
6:52 AM 59.0 °F - 57.0 °F 93% 30.05 in 10.0 mi Calm Calm - N/A   Overcast
7:52 AM 61.0 °F - 59.0 °F 93% 30.05 in 10.0 mi Calm Calm - N/A   Mostly Cloudy
8:52 AM 66.0 °F - 61.0 °F 84% 30.04 in 10.0 mi Calm Calm - N/A   Mostly Cloudy
9:52 AM 73.0 °F - 61.0 °F 66% 30.03 in 10.0 mi Calm Calm - N/A   Mostly Cloudy
10:52 AM 75.0 °F - 55.9 °F 51% 30.03 in 10.0 mi Variable 3.5 mph - N/A   Clear
11:52 AM 77.0 °F - 57.0 °F 50% 30.01 in 10.0 mi NNW 4.6 mph - N/A   Clear
12:52 PM 78.1 °F - 55.9 °F 46% 30.00 in 10.0 mi Calm Calm - N/A   Clear
1:52 PM 78.1 °F - 54.0 °F 43% 29.99 in 10.0 mi Calm Calm - N/A   Partly Cloudy
2:52 PM 79.0 °F - 55.9 °F 45% 29.98 in 10.0 mi West 3.5 mph - N/A   Overcast
3:52 PM 80.1 °F 80.4 °F 57.0 °F 45% 29.97 in 10.0 mi SSW 8.1 mph - N/A   Scattered Clouds
4:52 PM 80.1 °F 80.6 °F 57.9 °F 47% 29.95 in 10.0 mi SW 8.1 mph - N/A   Partly Cloudy
5:52 PM 80.1 °F 80.6 °F 57.9 °F 47% 29.95 in 10.0 mi SSW 4.6 mph - N/A   Clear
6:52 PM 77.0 °F - 62.1 °F 60% 29.95 in 10.0 mi South 5.8 mph - N/A   Clear
7:52 PM 73.9 °F - 63.0 °F 68% 29.95 in 10.0 mi South 3.5 mph - N/A   Clear
8:52 PM 71.1 °F - 63.0 °F 75% 29.95 in 10.0 mi Calm Calm - N/A   Clear
9:52 PM 68.0 °F - 63.0 °F 84% 29.95 in 10.0 mi Calm Calm - N/A   Clear
10:52 PM 66.0 °F - 63.0 °F 90% 29.94 in 10.0 mi Calm Calm - N/A   Clear
11:52 PM 64.0 °F - 61.0 °F 90% 29.95 in 10.0 mi Calm Calm - N/A   Clear